This is the latest recevied weather packets stored in our database for station/object KN6WGU. If no packets are shown the sender has not sent any weather packets the latest 10 day(s).
| Time | Temp. | Humidity | Pressure | Rain* | Wind** | Luminosity | Snow |
|---|---|---|---|---|---|---|---|
| 1777671488 | 7.78° C | 73% | 1007.9 hPa | 0 mm | - | 86 W/m² | - |
| 1777671184 | 7.78° C | 73% | 1007.8 hPa | 0 mm | - | 92 W/m² | - |
| 1777670880 | 7.78° C | 75% | 1007.8 hPa | 0 mm | - | 116 W/m² | - |
| 1777670576 | 7.78° C | 75% | 1007.8 hPa | 0 mm | - | 113 W/m² | - |
| 1777670274 | 7.78° C | 75% | 1007.7 hPa | 0 mm | - | 81 W/m² | - |
| 1777669971 | 8.33° C | 75% | 1007.7 hPa | 0 mm | - | 98 W/m² | - |
| 1777669668 | 8.33° C | 74% | 1007.7 hPa | 0 mm | - | 113 W/m² | - |
| 1777669364 | 8.33° C | 75% | 1007.6 hPa | 0 mm | - | 138 W/m² | - |
| 1777669060 | 8.33° C | 74% | 1007.4 hPa | 0 mm | - | 162 W/m² | - |
| 1777668758 | 8.33° C | 74% | 1007.5 hPa | 0 mm | - | 184 W/m² | - |
| 1777668455 | 8.33° C | 75% | 1007.3 hPa | 0 mm | - | 244 W/m² | - |
| 1777668152 | 8.33° C | 76% | 1007.4 hPa | 0 mm | - | 174 W/m² | - |
| 1777667847 | 7.78° C | 76% | 1007.2 hPa | 0 mm | - | 154 W/m² | - |
| 1777667545 | 8.89° C | 76% | 1007.1 hPa | 0 mm | - | 174 W/m² | - |
| 1777667242 | 8.89° C | 75% | 1007.4 hPa | 0 mm | - | 225 W/m² | - |
| 1777666939 | 8.33° C | 80% | 1007.1 hPa | 0 mm | - | 482 W/m² | - |
| 1777666635 | 7.22° C | 80% | 1007.2 hPa | 0 mm | - | 249 W/m² | - |
| 1777666332 | 7.22° C | 82% | 1007.2 hPa | 0 mm | - | 197 W/m² | - |
| 1777666029 | 6.67° C | 84% | 1007.3 hPa | 0 mm | - | 142 W/m² | - |
| 1777665727 | 6.67° C | 83% | 1007.3 hPa | 0 mm | - | 111 W/m² | - |
| 1777665424 | 6.67° C | 83% | 1007.3 hPa | 0 mm | - | 90 W/m² | - |
| 1777665120 | 6.67° C | 85% | 1007.2 hPa | 0 mm | - | 89 W/m² | - |
| 1777664816 | 6.67° C | 85% | 1007.2 hPa | 0 mm | - | 92 W/m² | - |
| 1777664511 | 6.67° C | 84% | 1007.3 hPa | 0 mm | - | 108 W/m² | - |
| 1777664208 | 6.67° C | 84% | 1007.1 hPa | 0 mm | - | 155 W/m² | - |
* Rain latest hour (hover to see other rain measurements)
** Current wind speed in m/s (hover to see current wind gust speed)